EHI
0 0 0 0 0 0 0 0 0 0 0 0 0 0 0 0 0 0 0 0 0 0 0 0 0 0 0 0 0 0 0 0 0 0 0 0 0 0
0 0 0 0 0 0 0 0 0 0 0 0 0 0 0 0 0 0 0 0 0 0 0 0 0 0 0 0 0 0 0 0 0 0 0 0 0 0
0 0 0 0 0 0 0 0 0 0 0 0 0 0 0 0 0 0 0 0 0 0 0 0 0 0 0 0 0 0 0 0 0 0 0 0 0 0
0 0 0 0 0 0 0 0 0 0 0 0 0 0 0 0 0 0 0 0 0 0 0 0 0 0 0 0 0 0 0 0 0 0 0 0 0 0
0 0 0 0 0 0 0 0 0 0 0 0 0 0 0 0 0 0 0 0 0 0 0 0 0 0 0 0 0 0 0 0 0 0 0 0 0 0
0 0 0 0 0 0 0 0 0 0 0 0 0 0 0 0 0 0 0 0 0 0 0 0 0 0 0 0 0 0 0 0 0 0 0 0 0 0
0 0 0 0 0 0 0 0 0 0 0 0 0 0 0 0 0 0 0 0 0 0 0 0 0 0 0 0 0 0 0 0 0 0 0 0 0 0
0 0 0 0 0 0 0 0 0 0 0 0 0 0 0 0 0 0 0 0 0 0 0 0 0 0 0 0 0 0 0 0 0 0 0 0 0 0
0 0 0 0 0 0 0 0 0 0 0 0 0 0 0 0 0 0 0 0 0 0 0 0 0 0 0 0 0 0 0 0 0 0 0 0 0 0
0 0 0 0 0 0 0 0 0 0 0 0 0 0 0 0 0 0 0 0 0 0 0 0 0 0 0 0 0 0 0 0 0 0 0 0 0 0
0 0 0 0 0 0 0 0 0 0 0 0 0 0 0 0 0 0 0 0 0 0 0 0 0 0 0 0 0 0 0 0 0 0 0 0 0 0
0 0 0 0 0 0 0 0 0 0 0 0 0 0 0 0 0 0 0 0 0 0 0 0 0 0 0 0 0 0 0 0 0 0 0 0 0 0
0 0 0 0 0 0 0 0 0 0 0 0 0 0 0 0 0 0 0 0 0 0 0 0 0 0 0 0 0 0 0 0 0 0 0 0 0 0
0 0 0 0 0 0 0 0 0 0 0 0 0 0 0 0 0 0 0 0 0 0 0 0 0 0 0 0 0 0 0 0 0 0 0 0 0 0
0 0 0 0 0 0 0 0 0 0 0 0 0 0 0 0 0 0 0 0 0 0 0 0 0 0 0 0 0 0 0 0 0 0 0 0 0 0
0 0 0 0 0 0 0 0 0 0 0 0 0 0 0 0 0 0 0 0 0 0 0 0 0 0 0 0 0 0 0 0 0 0 0 0 0 0
0 0 0 0 0 0 0 0 0 0 0 0 0 0 0 0 0 0 0 0 0 0 0 0 0 0 0 0 0 0 0 0 0 0 0 0 0 0
0 0 0 0 0 0 0 0 0 0 0 0 0 0 0 0 0 0 0 0 0 0 0 0 0 0 0 0 0 0 0 0 0 0 0 0 0 0
0 0 0 0 0 0 0 0 0 0 0 0 0 0 0 0 0 0 0 0 0 0 0 0 0 0 0 0 0 0 0 0 0 0 0 0 0 0
0 0 0 0 0 0 0 0 0 0 0 0 0 0 0 0 0 0 0 0 0 0 0 0 0 0 0 0 0 0 0 0 0 0 0 0 0 0
0 0 0 0 0 0 0 0 0 0 0 0 0 0 0 0 0 0 0 0 0 0 0 0 0 0 0 0 0 0 0 0 0 0 0 0 0 0
0 0 0 0 0 0 0 0 0 0 0 0 0 0 0 0 0 0 0 0 0 0 0 0 0 0 0 0 0 0 0 0 0 0 0 0 0 0
0 0 0 0 0 0 0 0 0 0 0 0 0 0 0 0 0 0 0 0 0 0 0 0 0 0 0 0 0 0 0 0 0 0 0 0 0 0
Wind_Speed
8 8 7 6 6 6 6 6 7 9 10 6 4 5 5 5 8 6 7 11 13 13 12 11 10 9 8 8 8 7 7 6 6 6 7 6 6 6
6 8 8 6 6 6 6 6 7 8 10 6 6 6 6 6 9 6 7 12 12 12 10 9 7 7 7 6 6 6 6 5 6 6 6 6 5 5
8 9 10 8 7 6 6 6 7 6 10 9 6 6 6 6 6 5 5 5 5 9 8 7 6 6 6 5 6 6 5 5 5 5 6 5 4 4
9 9 10 8 9 7 6 7 7 7 8 11 8 5 6 5 5 4 4 4 3 6 6 5 5 5 6 5 5 5 5 4 3 4 4 4 4 4
10 10 10 9 9 8 8 8 7 7 6 7 8 5 4 3 3 2 2 2 2 1 2 3 3 4 4 5 5 5 4 3 3 3 3 3 3 4
10 10 10 10 10 9 8 8 7 7 6 7 7 5 4 2 1 1 2 1 1 2 2 2 4 4 4 5 4 4 4 3 3 4 2 2 2 3
9 9 9 11 13 10 8 7 7 6 5 6 6 5 3 2 2 1 1 1 2 1 2 2 2 2 2 3 3 3 4 3 4 4 3 1 0 1
9 9 9 10 12 14 15 14 11 9 7 6 5 5 5 3 2 1 1 0 1 1 2 2 2 1 1 1 2 3 3 3 4 4 3 2 1 0
9 8 7 7 9 8 10 13 12 14 13 8 7 7 5 4 3 2 2 0 1 0 2 1 2 1 1 1 2 3 4 4 4 4 3 3 2 2
8 8 8 8 8 8 6 7 7 6 7 6 6 6 5 4 4 3 3 2 2 1 1 1 1 1 2 2 3 4 4 4 4 4 4 3 3 3
6 6 7 7 10 10 6 6 4 3 2 3 3 4 4 4 4 3 3 3 1 1 1 1 1 1 2 2 3 4 4 4 4 4 4 4 4 4
4 5 8 9 10 10 6 5 4 3 1 1 1 1 2 2 2 3 4 4 2 1 0 2 1 1 1 2 2 2 3 4 4 4 4 4 4 3
4 3 4 8 8 8 6 4 5 3 2 2 1 1 1 1 1 1 1 2 2 1 2 2 1 1 1 0 2 2 2 2 2 3 4 5 4 3
3 3 2 5 5 4 3 3 3 2 2 2 2 1 1 1 1 2 3 3 2 1 2 2 2 2 2 1 1 1 2 2 2 2 2 4 5 5
2 3 4 4 2 0 2 2 2 2 3 3 2 1 2 2 2 3 4 5 5 4 2 1 3 2 2 2 1 1 1 2 2 2 2 2 2 2
2 2 3 2 1 1 1 2 2 2 3 3 3 2 2 2 2 2 2 3 4 4 5 5 3 4 3 3 3 2 1 1 1 2 2 2 2 2
2 1 1 2 2 2 2 2 2 2 2 3 3 3 3 3 2 2 2 3 3 3 3 4 5 5 5 3 3 2 2 2 1 1 2 2 2 2
2 1 1 1 1 1 2 2 2 2 2 3 3 3 3 3 3 2 3 4 4 4 3 2 3 3 4 5 4 3 2 2 1 2 2 2 2 2
1 1 1 1 1 1 1 2 2 2 3 3 3 3 3 3 3 3 3 4 4 4 2 1 1 3 4 3 3 4 2 2 2 2 2 1 1 2
1 1 1 1 1 1 1 2 2 2 3 3 3 3 3 3 3 4 3 4 4 4 3 2 2 2 3 3 2 2 3 2 2 2 2 2 1 2
1 1 1 1 1 1 1 2 2 2 3 3 3 3 3 4 4 4 4 6 4 4 4 2 2 4 4 4 4 3 3 4 3 2 1 1 2 2
1 1 1 1 1 1 2 2 2 2 3 3 3 3 3 4 4 5 4 4 4 4 4 3 3 3 3 4 5 4 3 4 5 7 5 3 1 1
1 1 1 1 1 2 2 2 2 2 2 3 3 3 4 4 4 4 5 5 5 6 5 4 3 4 4 4 5 4 5 4 3 4 5 7 6 5
Wind_Direction
244 243 245 250 245 245 245 241 253 278 282 274 269 262 266 267 268 266 264 266 265 264 260 249 241 235 233 229 227 226 224 221 214 226 232 220 225 233
247 246 248 250 249 246 245 245 240 252 272 275 270 275 272 277 273 271 267 274 265 262 253 242 232 223 219 218 217 212 211 210 215 229 229 216 223 236
251 249 250 250 250 251 247 245 243 242 264 279 274 277 271 272 279 272 274 266 253 251 246 238 225 209 204 203 199 197 200 207 216 235 222 217 230 246
254 251 253 252 250 249 246 246 245 242 252 273 281 277 269 270 272 273 283 287 262 244 237 229 218 199 186 179 180 183 187 196 214 228 206 216 236 255
253 251 251 248 251 250 247 247 248 250 248 261 274 274 273 272 283 287 288 293 294 265 209 180 174 164 158 154 156 160 166 180 206 204 192 217 246 263
254 251 249 244 247 250 249 248 248 250 250 256 265 269 261 257 254 260 309 345 349 18 54 85 119 120 133 142 148 157 167 182 194 181 171 216 247 264
260 254 250 247 248 250 251 247 245 249 252 256 259 264 254 240 244 229 263 1 15 40 75 54 77 88 114 128 135 158 173 185 180 167 161 168 236 280
262 259 254 251 252 255 257 255 249 246 247 250 255 251 247 234 222 217 170 121 335 27 80 25 41 47 17 69 140 153 157 161 164 160 154 150 137 19
256 255 257 252 254 249 256 260 257 253 248 244 243 245 231 211 193 212 197 199 272 233 82 22 16 9 360 68 103 132 143 130 127 128 126 118 101 68
254 246 246 249 245 245 249 256 255 252 246 237 231 232 223 200 194 192 156 99 54 22 77 101 2 7 15 30 76 92 108 129 132 123 114 97 77 66
262 250 246 245 248 250 250 250 253 263 262 235 221 208 201 197 181 145 146 136 98 338 0 114 105 35 26 27 44 66 81 91 101 106 98 82 71 68
272 257 252 251 251 252 238 222 226 236 192 129 119 132 160 163 187 181 169 158 151 224 225 109 120 84 44 15 29 42 59 65 67 69 72 67 65 69
276 272 260 259 260 257 243 211 207 211 171 143 129 116 106 103 95 84 128 158 169 195 181 128 127 95 120 70 26 42 54 41 37 51 62 60 55 64
281 278 270 270 273 258 239 178 182 181 140 127 119 117 116 104 79 71 72 67 70 145 180 161 146 165 141 116 69 49 42 39 44 44 40 49 50 47
298 290 288 290 296 264 144 155 157 142 135 131 134 136 127 122 104 86 74 72 61 48 40 76 134 139 120 130 127 106 56 30 43 56 48 47 41 40
311 313 315 339 41 95 103 108 119 134 138 139 134 122 112 108 101 108 106 94 74 50 42 53 83 112 105 96 115 114 91 94 47 50 53 37 30 37
321 9 35 40 67 77 80 89 100 112 113 126 129 123 115 105 99 99 104 94 96 98 67 54 63 73 77 101 105 101 95 80 80 61 63 44 19 20
346 62 60 56 71 98 107 101 101 109 112 119 125 127 123 118 108 93 96 104 105 104 99 93 96 83 72 54 58 106 89 83 73 55 64 63 22 4
19 65 74 86 86 89 110 111 109 111 115 120 122 124 124 121 117 110 106 103 102 100 97 105 97 105 103 80 29 42 100 96 83 58 45 54 38 343
41 72 74 83 96 99 109 112 108 112 114 118 118 121 127 125 119 117 111 111 110 104 95 74 70 94 113 119 101 31 49 101 101 81 49 38 18 350
26 52 84 100 109 111 112 114 116 118 120 119 118 122 124 122 119 117 115 114 109 109 106 83 58 83 93 92 88 62 34 42 73 97 92 67 34 19
32 40 69 95 109 118 118 116 116 114 118 118 121 121 120 121 122 123 122 119 111 105 100 90 82 78 78 95 100 92 67 45 51 56 52 73 112 94
26 37 76 124 126 123 123 122 125 121 118 120 118 118 119 117 117 118 118 115 112 109 106 97 75 67 72 93 104 97 86 70 54 51 41 41 58 71